When you browse on this site, cookies collect data to enhance your experience and personalize the content and advertising you see.
Visit our Privacy Policy to learn more. By continuing to use the site, you agree to this use of cookies and data.
  • In Hungary
  • List of Countries
  • For 7 days
  • Water Temperature
  • Weather Map
  • News
  • Weather Widgets
  • user-avatar
    Login

    Hourly Weather El-Dzhauf

    Today, 14 November, Thursday

    Time Temperature Precipitation Wind Pressure Humidity
    00:00 +13°C° 0 mm 4 mps 583 mmHg 50%
    01:00 +12°C° 0 mm 4 mps 582 mmHg 51%
    02:00 +11°C° 0 mm 4 mps 582 mmHg 52%
    03:00 +10°C° 0 mm 3 mps 581 mmHg 56%
    04:00 +10°C° 0 mm 3 mps 581 mmHg 56%
    05:00 +10°C° 0 mm 3 mps 582 mmHg 56%
    06:00 +9°C° 0 mm 3 mps 582 mmHg 57%
    07:00 +12°C° 0 mm 3 mps 583 mmHg 51%
    08:00 +14°C° 0 mm 3 mps 584 mmHg 44%
    09:00 +17°C° 0 mm 3 mps 585 mmHg 39%
    10:00 +19°C° 0 mm 3 mps 585 mmHg 37%
    11:00 +20°C° 0 mm 3 mps 586 mmHg 34%
    12:00 +21°C° 0 mm 3 mps 586 mmHg 32%
    13:00 +21°C° 0 mm 3 mps 585 mmHg 33%
    14:00 +20°C° 0 mm 3 mps 584 mmHg 34%
    15:00 +20°C° 0 mm 4 mps 583 mmHg 34%
    16:00 +19°C° 0 mm 4 mps 584 mmHg 39%
    17:00 +18°C° 0 mm 4 mps 584 mmHg 43%
    18:00 +17°C° 0 mm 3 mps 584 mmHg 47%
    19:00 +15°C° 0.1 mm 4 mps 583 mmHg 48%
    20:00 +13°C° 0.1 mm 4 mps 583 mmHg 48%
    21:00 +12°C° 0.1 mm 5 mps 583 mmHg 49%
    22:00 +12°C° 0 mm 5 mps 583 mmHg 49%
    23:00 +11°C° 0 mm 4 mps 583 mmHg 49%

    Tomorrow, 15 November, Friday

    Time Temperature Precipitation Wind Pressure Humidity
    00:00 +11°C° 0 mm 4 mps 583 mmHg 49%
    01:00 +10°C° 0 mm 3 mps 582 mmHg 50%
    02:00 +10°C° 0 mm 3 mps 582 mmHg 50%
    03:00 +10°C° 0 mm 3 mps 581 mmHg 51%
    04:00 +10°C° 0 mm 3 mps 581 mmHg 51%
    05:00 +10°C° 0 mm 3 mps 581 mmHg 51%
    06:00 +9°C° 0 mm 2 mps 582 mmHg 51%
    07:00 +12°C° 0 mm 3 mps 583 mmHg 45%
    08:00 +14°C° 0 mm 3 mps 584 mmHg 39%
    09:00 +18°C° 0 mm 3 mps 586 mmHg 32%
    10:00 +19°C° 0 mm 3 mps 586 mmHg 30%
    11:00 +20°C° 0 mm 3 mps 586 mmHg 29%
    12:00 +21°C° 0 mm 2 mps 586 mmHg 27%
    13:00 +21°C° 0 mm 3 mps 585 mmHg 27%
    14:00 +21°C° 0 mm 3 mps 585 mmHg 28%
    15:00 +21°C° 0 mm 3 mps 584 mmHg 28%
    16:00 +20°C° 0 mm 3 mps 584 mmHg 35%
    17:00 +18°C° 0 mm 3 mps 583 mmHg 41%
    18:00 +17°C° 0 mm 2 mps 583 mmHg 47%
    19:00 +16°C° 0.1 mm 3 mps 583 mmHg 48%
    20:00 +16°C° 0.1 mm 3 mps 583 mmHg 49%
    21:00 +14°C° 0.1 mm 4 mps 583 mmHg 50%
    22:00 +14°C° 0 mm 3 mps 583 mmHg 50%
    23:00 +14°C° 0 mm 3 mps 583 mmHg 49%

    Day after tomorrow, 16 November, Saturday

    Time Temperature Precipitation Wind Pressure Humidity
    00:00 +13°C° 0 mm 3 mps 582 mmHg 49%
    01:00 +13°C° 0 mm 3 mps 582 mmHg 50%
    02:00 +14°C° 0 mm 2 mps 582 mmHg 52%
    03:00 +14°C° 0 mm 2 mps 581 mmHg 53%
    04:00 +13°C° 0 mm 2 mps 581 mmHg 56%
    05:00 +13°C° 0 mm 2 mps 581 mmHg 59%
    06:00 +12°C° 0 mm 2 mps 581 mmHg 62%
    07:00 +14°C° 0 mm 2 mps 582 mmHg 55%
    08:00 +16°C° 0 mm 2 mps 583 mmHg 48%
    09:00 +17°C° 0 mm 2 mps 583 mmHg 41%
    10:00 +18°C° 0 mm 2 mps 584 mmHg 38%
    11:00 +19°C° 0 mm 2 mps 584 mmHg 36%
    12:00 +21°C° 0 mm 3 mps 584 mmHg 33%
    13:00 +20°C° 0 mm 3 mps 583 mmHg 35%
    14:00 +20°C° 0 mm 3 mps 583 mmHg 37%
    15:00 +20°C° 0 mm 3 mps 582 mmHg 38%
    16:00 +19°C° 0.2 mm 3 mps 582 mmHg 45%
    17:00 +18°C° 0.2 mm 2 mps 582 mmHg 52%
    18:00 +16°C° 0.2 mm 1 mps 581 mmHg 59%
    19:00 +16°C° 0.3 mm 2 mps 581 mmHg 59%
    20:00 +15°C° 0.3 mm 2 mps 581 mmHg 58%
    21:00 +15°C° 0.3 mm 2 mps 582 mmHg 57%
    22:00 +14°C° 0 mm 2 mps 581 mmHg 55%
    23:00 +14°C° 0 mm 2 mps 581 mmHg 53%

    17 November, Sunday

    Time Temperature Precipitation Wind Pressure Humidity
    00:00 +13°C° 0 mm 2 mps 581 mmHg 50%
    01:00 +13°C° 0 mm 2 mps 580 mmHg 51%
    02:00 +12°C° 0 mm 2 mps 580 mmHg 52%
    03:00 +12°C° 0 mm 2 mps 580 mmHg 53%
    04:00 +12°C° 0 mm 2 mps 580 mmHg 54%
    05:00 +10°C° 0 mm 2 mps 580 mmHg 55%
    06:00 +10°C° 0 mm 3 mps 580 mmHg 56%
    07:00 +12°C° 0 mm 3 mps 581 mmHg 50%
    08:00 +14°C° 0 mm 3 mps 582 mmHg 43%
    09:00 +17°C° 0 mm 4 mps 583 mmHg 36%
    10:00 +18°C° 0 mm 4 mps 583 mmHg 36%
    11:00 +19°C° 0 mm 4 mps 583 mmHg 35%
    12:00 +19°C° 0 mm 4 mps 583 mmHg 35%
    13:00 +19°C° 0 mm 4 mps 582 mmHg 40%
    14:00 +18°C° 0 mm 4 mps 582 mmHg 46%
    15:00 +17°C° 0 mm 4 mps 581 mmHg 52%
    16:00 +17°C° 0 mm 3 mps 581 mmHg 53%
    17:00 +17°C° 0 mm 2 mps 582 mmHg 54%
    18:00 +16°C° 0 mm 1 mps 582 mmHg 56%
    19:00 +16°C° 0 mm 2 mps 582 mmHg 56%
    20:00 +16°C° 0 mm 2 mps 582 mmHg 56%
    21:00 +14°C° 0 mm 3 mps 582 mmHg 56%
    22:00 +14°C° 0 mm 3 mps 582 mmHg 56%
    23:00 +13°C° 0 mm 3 mps 582 mmHg 55%

    18 November, Monday

    Time Temperature Precipitation Wind Pressure Humidity
    00:00 +13°C° 0 mm 3 mps 582 mmHg 55%
    01:00 +13°C° 0 mm 2 mps 581 mmHg 57%
    02:00 +13°C° 0 mm 2 mps 581 mmHg 60%
    03:00 +12°C° 0 mm 2 mps 580 mmHg 62%
    04:00 +12°C° 0 mm 2 mps 580 mmHg 64%
    05:00 +12°C° 0 mm 2 mps 580 mmHg 66%
    06:00 +10°C° 0 mm 2 mps 581 mmHg 68%
    07:00 +14°C° 0 mm 2 mps 582 mmHg 60%
    08:00 +16°C° 0 mm 3 mps 583 mmHg 53%
    09:00 +18°C° 0 mm 3 mps 584 mmHg 45%
    10:00 +19°C° 0 mm 4 mps 584 mmHg 42%
    11:00 +20°C° 0 mm 4 mps 584 mmHg 38%
    12:00 +21°C° 0 mm 5 mps 584 mmHg 35%
    13:00 +21°C° 0 mm 5 mps 584 mmHg 35%
    14:00 +21°C° 0 mm 5 mps 584 mmHg 35%
    15:00 +21°C° 0 mm 5 mps 584 mmHg 35%
    16:00 +20°C° 0 mm 4 mps 583 mmHg 41%
    17:00 +19°C° 0 mm 3 mps 583 mmHg 46%
    18:00 +17°C° 0 mm 3 mps 582 mmHg 52%
    19:00 +17°C° 0 mm 3 mps 582 mmHg 54%
    20:00 +16°C° 0 mm 2 mps 582 mmHg 57%
    21:00 +15°C° 0 mm 2 mps 582 mmHg 59%
    22:00 +15°C° 0 mm 2 mps 582 mmHg 60%
    23:00 +14°C° 0 mm 2 mps 582 mmHg 61%

    19 November, Tuesday

    Time Temperature Precipitation Wind Pressure Humidity
    00:00 +14°C° 0 mm 2 mps 582 mmHg 61%
    01:00 +14°C° 0 mm 2 mps 581 mmHg 61%
    02:00 +13°C° 0 mm 2 mps 581 mmHg 61%
    03:00 +13°C° 0 mm 2 mps 581 mmHg 60%
    04:00 +12°C° 0 mm 2 mps 581 mmHg 60%
    05:00 +12°C° 0 mm 2 mps 581 mmHg 59%
    06:00 +12°C° 0 mm 2 mps 581 mmHg 59%
    07:00 +14°C° 0 mm 2 mps 582 mmHg 53%
    08:00 +16°C° 0 mm 2 mps 583 mmHg 48%
    09:00 +18°C° 0 mm 3 mps 585 mmHg 42%
    10:00 +20°C° 0 mm 4 mps 585 mmHg 37%
    11:00 +21°C° 0 mm 4 mps 585 mmHg 32%
    12:00 +22°C° 0 mm 5 mps 585 mmHg 27%
    13:00 +22°C° 0 mm 5 mps 584 mmHg 28%
    14:00 +22°C° 0 mm 5 mps 584 mmHg 29%
    15:00 +22°C° 0 mm 6 mps 584 mmHg 30%
    16:00 +21°C° 0 mm 5 mps 583 mmHg 38%
    17:00 +19°C° 0 mm 4 mps 582 mmHg 45%
    18:00 +17°C° 0 mm 3 mps 582 mmHg 52%
    19:00 +17°C° 0 mm 3 mps 582 mmHg 55%
    20:00 +16°C° 0 mm 2 mps 582 mmHg 59%
    21:00 +15°C° 0 mm 2 mps 581 mmHg 62%
    22:00 +15°C° 0 mm 2 mps 581 mmHg 61%
    23:00 +14°C° 0 mm 2 mps 581 mmHg 60%
    Show more